This demonstration page uses our WeatherBlox Daily Observations layout. Learn more.

Left ArrowRight Arrow

Hourly Observations for May 9, 2022

Temp ( °F °C ) Dew Point ( °F °C ) Humidity (%) Winds ( mph kmh ) Pressure ( in mb ) Visibility ( mi km ) Precip ( " mm )
12:15 am 00:15 Clear 57 13.7 42 5.5 58 58 ESE 12 19 29.98 1015 10 16 0.00 0.00
12:35 am 00:35 Clear 57 13.9 42 5.3 56 56 SE 12 19 29.98 1015 10 16 0.00 0.00
12:55 am 00:55 Clear 56 13.5 42 5.4 58 58 SE 10 17 29.98 1015 10 16 0.00 0.00
1:15 am 01:15 Clear 56 13.5 41 5.2 57 57 SE 13 20 29.98 1015 10 16 0.00 0.00
1:35 am 01:35 Clear 56 13.1 42 5.4 60 60 SE 9 15 29.99 1016 10 16 0.00 0.00
1:55 am 01:55 Clear 55 12.8 42 5.6 62 62 SE 10 17 29.99 1016 10 16 0.00 0.00
2:15 am 02:15 Clear 55 12.5 42 5.6 63 63 Calm 29.99 1016 10 16 0.00 0.00
2:35 am 02:35 Clear 54 12.2 42 5.6 64 64 Calm 30.00 1016 10 16 0.00 0.00
2:55 am 02:55 Clear 53 11.9 42 5.8 67 67 Calm 30.00 1016 10 16 0.00 0.00
3:15 am 03:15 Clear 53 11.7 43 6 68 68 Calm 30.01 1016 10 16 0.00 0.00
3:35 am 03:35 Clear 54 12 44 6.4 69 69 SE 6 9 30.00 1016 10 16 0.00 0.00
3:55 am 03:55 Clear 54 12 44 6.7 70 70 Calm 30.01 1016 10 16 0.00 0.00
4:15 am 04:15 Clear 54 12 45 7 72 72 SE 3 6 30.02 1017 10 16 0.00 0.00
4:35 am 04:35 Clear 53 11.7 45 7 73 73 Calm 30.02 1017 10 16 0.00 0.00
4:55 am 04:55 Clear 53 11.5 45 7.1 75 75 SE 5 7 30.03 1017 10 16 0.00 0.00
5:15 am 05:15 Clear 53 11.5 45 7.2 75 75 SE 3 6 30.03 1017 10 16 0.00 0.00
5:35 am 05:35 Clear 52 11.2 45 7.3 77 77 Calm 30.03 1017 10 16 0.00 0.00
5:55 am 05:55 Clear 52 11.1 45 7.2 77 77 Calm 30.03 1017 10 16 0.00 0.00
6:15 am 06:15 Clear 52 11 45 7.3 78 78 Calm 30.03 1017 10 16 0.00 0.00
6:35 am 06:35 Clear 51 10.8 46 7.5 80 80 SE 3 6 30.04 1017 10 16 0.00 0.00
6:55 am 06:55 Sunny 52 11 46 7.5 79 79 Calm 30.04 1017 10 16 0.00 0.00
7:15 am 07:15 Sunny 53 11.4 46 7.8 79 79 SE 10 17 30.04 1017 10 16 0.00 0.00
7:35 am 07:35 Sunny 54 12.1 47 8.1 77 77 SSE 12 19 30.03 1017 10 16 0.00 0.00
7:55 am 07:55 Sunny 55 13 47 8.6 75 75 SSE 12 19 30.03 1017 10 16 0.00 0.00
8:15 am 08:15 Sunny 56 13.6 48 9 74 74 SE 13 20 30.04 1017 10 16 0.00 0.00
8:35 am 08:35 Sunny 58 14.5 49 9.3 71 71 SSE 15 24 30.04 1017 10 16 0.00 0.00
8:55 am 08:55 Sunny 59 15.2 49 9.7 70 70 SSE 14 22 30.04 1017 10 16 0.00 0.00
9:15 am 09:15 Sunny 61 16 51 10.3 69 69 SSE 14 22 30.04 1017 10 16 0.00 0.00
9:35 am 09:35 Sunny 62 16.6 51 10.3 67 67 SSE 14 22 30.05 1018 10 16 0.00 0.00
9:55 am 09:55 Sunny 63 17.3 51 10.5 65 65 SE 17 28 30.04 1017 10 16 0.00 0.00
10:15 am 10:15 Sunny 65 18.1 52 11.2 64 64 SE 15 24 30.03 1017 10 16 0.00 0.00
10:35 am 10:35 Sunny 66 19 53 11.9 64 64 SSE 15 24 30.03 1017 10 16 0.00 0.00
10:55 am 10:55 Sunny 67 19.5 54 12.1 62 62 SE 15 24 30.03 1017 10 16 0.00 0.00
11:15 am 11:15 Sunny 68 20.1 54 12.3 61 61 SE 16 26 30.03 1017 10 16 0.00 0.00
11:35 am 11:35 Sunny 69 20.4 54 12.2 59 59 SSE 17 28 30.03 1017 10 16 0.00 0.00
11:55 am 11:55 Sunny 70 21 55 12.6 59 59 SSE 17 28 30.03 1017 10 16 0.00 0.00
12:15 pm 12:15 Sunny 71 21.5 55 12.8 58 58 SSE 14 22 30.03 1017 10 16 0.00 0.00
12:35 pm 12:35 Sunny 71 21.8 55 12.8 57 57 SSE 20 31 30.02 1017 10 16 0.00 0.00
12:55 pm 12:55 Sunny 72 22.3 55 12.9 55 55 SE 22 35 30.01 1016 10 16 0.00 0.00
1:15 pm 13:15 Sunny 73 22.5 55 12.8 54 54 SSE 22 35 30.01 1016 10 16 0.00 0.00
1:35 pm 13:35 Sunny 73 23 55 12.9 53 53 SSE 20 31 30.01 1016 10 16 0.00 0.00
1:55 pm 13:55 Sunny 75 23.8 56 13.5 53 53 SSE 21 33 29.99 1016 10 16 0.00 0.00
2:15 pm 14:15 Sunny 74 23.6 55 12.7 51 51 SSE 22 35 29.98 1015 10 16 0.00 0.00
2:35 pm 14:35 Sunny 75 24.1 55 12.8 49 49 SSE 21 33 29.98 1015 10 16 0.00 0.00
2:55 pm 14:55 Sunny 76 24.4 55 12.8 48 48 SE 20 31 29.97 1015 10 16 0.00 0.00
3:15 pm 15:15 Sunny 77 24.8 56 13.1 48 48 SSE 17 28 29.97 1015 10 16 0.00 0.00
3:35 pm 15:35 Sunny 77 25 55 13 47 47 S 20 31 29.96 1015 10 16 0.00 0.00
3:55 pm 15:55 Sunny 78 25.3 56 13.6 48 48 SSE 18 30 29.95 1014 10 16 0.00 0.00
4:15 pm 16:15 Sunny 78 25.4 56 13.5 48 48 S 18 30 29.94 1014 10 16 0.00 0.00
4:35 pm 16:35 Sunny 78 25.6 56 13.2 46 46 SSE 23 37 29.94 1014 10 16 0.00 0.00
4:55 pm 16:55 Sunny 78 25.4 56 13.5 48 48 SSE 18 30 29.94 1014 10 16 0.00 0.00
5:15 pm 17:15 Sunny 78 25.6 57 13.9 48 48 SSE 15 24 29.94 1014 10 16 0.00 0.00
5:35 pm 17:35 Sunny 78 25.7 57 13.9 48 48 SSE 22 35 29.94 1014 10 16 0.00 0.00
5:55 pm 17:55 Sunny 78 25.6 57 14 49 49 SSE 17 28 29.94 1014 10 16 0.00 0.00
6:15 pm 18:15 Partly Cloudy 78 25.5 58 14.2 50 50 SSE 18 30 29.94 1014 10 16 0.00 0.00
6:35 pm 18:35 Sunny 77 25.2 57 13.9 50 50 SSE 20 31 29.94 1014 10 16 0.00 0.00
6:55 pm 18:55 Sunny 77 25 57 14 51 51 SSE 18 30 29.94 1014 10 16 0.00 0.00
7:15 pm 19:15 Sunny 76 24.7 57 14.1 52 52 SSE 21 33 29.94 1014 10 16 0.00 0.00
7:35 pm 19:35 Sunny 76 24.2 57 13.9 53 53 SE 17 28 29.93 1014 10 16 0.00 0.00
7:55 pm 19:55 Sunny 75 23.8 57 14.1 55 55 SSE 17 28 29.94 1014 10 16 0.00 0.00
8:15 pm 20:15 Sunny 74 23.2 57 14 56 56 SSE 14 22 29.95 1014 10 16 0.00 0.00
8:35 pm 20:35 Sunny 73 22.8 57 14 58 58 SSE 17 28 29.95 1014 10 16 0.00 0.00
8:55 pm 20:55 Clear 72 22.4 57 13.9 59 59 SSE 15 24 29.96 1015 10 16 0.00 0.00
9:15 pm 21:15 Clear 72 22.2 57 13.8 59 59 SSE 12 19 29.96 1015 10 16 0.00 0.00
9:35 pm 21:35 Clear 71 21.7 57 13.9 61 61 SSE 13 20 29.97 1015 10 16 0.00 0.00
9:55 pm 21:55 Clear 71 21.5 57 13.9 62 62 SSE 13 20 29.97 1015 10 16 0.00 0.00
10:15 pm 22:15 Clear 70 21.3 57 13.8 62 62 SSE 17 28 29.98 1015 10 16 0.00 0.00
10:35 pm 22:35 Clear 70 21.2 57 13.7 62 62 SSE 14 22 29.99 1016 10 16 0.00 0.00
10:55 pm 22:55 Clear 70 20.9 56 13.5 63 63 SSE 16 26 29.99 1016 10 16 0.00 0.00
11:15 pm 23:15 Clear 69 20.8 56 13.5 63 63 SSE 13 20 30.00 1016 10 16 0.00 0.00
11:35 pm 23:35 Clear 69 20.5 56 13.5 64 64 SSE 15 24 30.00 1016 10 16 0.00 0.00
11:55 pm 23:55 Clear 68 20 56 13.6 67 67 SSE 14 22 30.01 1016 10 16 0.00 0.00

Powered by AerisWeather